Regional Weather Roundup
Issued by NWS

Home | Current Version | Previous Version | Text Only | Print | Product List | Glossary On
Versions: 1 2 3 4 5 6 7 8 9 10 11 12 13 14 15 16 17 18 19 20 21 22 23 24 25 26 27 28 29 30 31 32 33 34 35 36 37 38 39 40 41 42 43 44 45 46 47 48 49 50
000
ASHW40 PHFO 281430
RWRHI

WEATHER ROUNDUP FOR HAWAII
NATIONAL WEATHER SERVICE HONOLULU HI
400 AM HST SUN DEC 28 2014

THIS IS AN AUTOMATED REPORT THAT HAS NOT BEEN QUALITY CONTROLLED.

NOTE..."FAIR" INDICATES FEW OR NO CLOUDS BELOW 12,000 FEET WITH NO
SIGNIFICANT WEATHER AND/OR OBSTRUCTIONS TO VISIBILITY.

* - THESE SITES REPORT LIMITED FIELDS

HIZ001>004-281500-
KAUAI-NIIHAU-

CITY           SKY/WX    TMP DP  RH WIND       PRES   REMARKS
LIHUE APT      CLOUDY    62  53  72 NW5       29.94S
PORT ALLEN*      N/A     59 N/A N/A NE8         N/A
POIPU*           N/A     66 N/A N/A N7G15       N/A
PRINCEVILLE*     N/A     64 N/A N/A MISG        N/A
KOKOLE POINT*    N/A     66 N/A N/A MISG        N/A
MOLOAA DAIRY*  NOT AVBL
WAIMEA HTS*    NOT AVBL
PUU OPAE*      NOT AVBL
PUU LUA*       NOT AVBL
MAKAHA RIDGE*  NOT AVBL
$$

HIZ005>011-281500-
OAHU-

CITY           SKY/WX    TMP DP  RH WIND       PRES   REMARKS
HONOLULU       PTCLDY    67  55  65 N7        29.90S
KALAELOA       CLEAR     64  55  72 VRB3      29.92S
KANEOHE MCB    MOCLDY    70  57  63 N15       29.91S
WHEELER FIELD  FAIR      62  54  75 N7        29.91S
BELLOWS*         N/A    N/A N/A N/A S3G14       N/A
KAHUKU*          N/A    N/A N/A N/A N2          N/A
WHEELER*       NOT AVBL
WAIANAE HARBOR NOT AVBL
DILLINGHAM*      N/A     63  55  77 VRB1G7      N/A
KAHUKU TRN*      N/A     66  54  63 N6G13       N/A
KAWAILOA*        N/A     63  55  77 VRB6G12     N/A
KII*             N/A     70  57  64 N12         N/A
MAKUA RANGE*     N/A     70  54  56 E12G24      N/A
OAHU FOREST NW NOT AVBL
SCHOFIELD BRK*   N/A     63  54  72 MISG        N/A
SCHOFIELD S*   NOT AVBL
WAIANAE VLY*   NOT AVBL
KUAOKALA*      NOT AVBL
HONOULIUULI*   NOT AVBL
MOKUOLOE IS*     N/A    N/A N/A N/A MISG        N/A
PALEHUA*       NOT AVBL
WAIAWA PHB*    NOT AVBL
$$

HIZ012>013-281500-
MOLOKAI-

CITY           SKY/WX    TMP DP  RH WIND       PRES   REMARKS
MOLOKAI AIRPT  CLOUDY    68  54  60 N9        29.91S
KALAUPAPA      NOT AVBL
MAKAPULAPAI*   NOT AVBL
MOLOKAI 1*     NOT AVBL
PUU ALII*        N/A     51  51 100 E2G8        N/A
$$

HIZ016-281500-
KAHOOLAWE-

CITY           SKY/WX    TMP DP  RH WIND       PRES   REMARKS
KAHOOLAWE*     NOT AVBL
HAKIOAWA*        N/A     65  58  77 MISG      30.31
HONOKANAIA*      N/A     68  56  64 NE7G24    29.88S
KANELOA*         N/A     66  57  72 N21G38    29.07S
KEALIALALO*    NOT AVBL
LUA MAKIKA*    NOT AVBL
$$

HIZ014>015-281500-
LANAI-

CITY           SKY/WX    TMP DP  RH WIND       PRES   REMARKS
LANAI CITY     FAIR      62  54  75 N9        29.92F
LANAI 1*       NOT AVBL
$$

HIZ017>028-281500-
MAUI-

CITY           SKY/WX    TMP DP  RH WIND       PRES   REMARKS
KAHULUI        CLEAR     70  53  54 N9        29.90S
KAPALUA-W MAUI NOT AVBL
HANA AIRPORT   MOCLDY    66  55  68 W7        29.93R
HANA*            N/A     68 N/A N/A W6G14       N/A
HALEAKALA SUMM   N/A     45  -4  13 N37G63      N/A
MAALAEA BAY*   NOT AVBL
HALEAKALA*     NOT AVBL
KAUPO GAP*     NOT AVBL
KULA 1*          N/A     48  -4  11 CALM        N/A
$$

HIZ023>026-281500-
BIG ISLAND OF HAWAII COAST AND LOWER SLOPES-

CITY           SKY/WX    TMP DP  RH WIND       PRES   REMARKS
KAILUA KONA    CLEAR     67  50  54 N10       29.85R
HILO           MOCLDY    70  56  61 NW12      29.88R
HONOKAA*       NOT AVBL
KAWAIHAE MWT*    N/A     66 N/A N/A E3          N/A
KAWAIHAE*        N/A     70 N/A N/A E5          N/A
SOUTH POINT*     N/A     63 N/A N/A NW5         N/A
UPOLU AIRPORT*   N/A    N/A N/A N/A NE17G23     N/A
KAMUELA*       PTSUNNY   55  52  88 NE16      29.97R
HAKALAU*         N/A    N/A N/A N/A E2G13       N/A
KALOKO-HONOKO*   N/A     63  52  67 E2        29.84R
PALI 2*          N/A     57  55  94 N7          N/A
KEALAKOMO*       N/A     72  55  56 N18G28      N/A
KAUPULEHU*     NOT AVBL
KAPAPALA*        N/A     57  55  93 CALM        N/A
LOWER KAHUKU*    N/A     54  50  87 N3          N/A
PUHE CS*       NOT AVBL
PUHO CS*         N/A     67  51  57 N1          N/A
PTA KEAMUKU*     N/A     54  50  87 CALM        N/A
WAIKOLOA*      NOT AVBL
$$

HIZ027>028-281500-
BIG ISLAND OF HAWAII INTERIOR AND SUMMMITS-

CITY           SKY/WX    TMP DP  RH WIND       PRES   REMARKS
BRADSHAW FIELD CLOUDY    41   9  26 SE6       30.14S
MK VISITOR CEN   N/A      0   0 100 MISG        N/A
MAUNA KEA*       N/A     30  -8  19 N25         N/A  WCI  16
MAUNA LOA*       N/A     39 -11  11 MISG        N/A
MAUNA LOA 1*   NOT AVBL
PTA KIPUKA*      N/A     39  10  30 E5          N/A
PTA RANGE 17*    N/A    N/A N/A N/A E5          N/A
PTA WEST*        N/A    N/A N/A N/A SE13        N/A
NENE CABIN*      N/A    N/A N/A N/A N6G12       N/A
AHUMOA*        NOT AVBL
PTA PORTABLE*  NOT AVBL
PUU MALI*      NOT AVBL
$$

HIC003-281500-
NORTHWEST ISLANDS-

CITY           SKY/WX    TMP DP  RH WIND       PRES   REMARKS
MIDWAY ISLAND  MOCLDY    73  70  88 W12       29.95S
MIDWAY NOS*    NOT AVBL
FRENCH FRIGATE NOT AVBL
$$

PHZ110>124-180-281500-
BUOY REPORTS

STATION/POSITION TIME  TEMP    WIND        PRES    WAVE   SWELL
                       AIR SEA DIR/SP/G            HT/PER HT/DIR
                 (UTC) (F)     (DEG/KT/KT) (MB)    (FT/S) (FT/D)
BUOY 51001       NOT AVBL
BUOY 51101       1400   69 76  350/ 10/ 16 1014.5F   9/10   8/360
BUOY 51100       1400   71 74  350/ 16/ 19 1010.8S
BUOY 51003       1400   73 78   20/ 14/ 17 1011.9R   8/14   7
BUOY 51004       1339   76 77  350/ 12/ 16 1010.0R   7/ 9   7/ 20
BARBERS PT BUOY  NOT AVBL
WAIMEA BAY BUOY  1400      76                N/A    10/13   7/320
KAILUA BAY BUOY  1400      76                N/A     8/ 9   3/350
LANAI BUOY       1400      77                N/A     3/13   2/280
BARBERS PT 2     1400      77                N/A     6/13   3/300
PAUWELA MAUI     1400      76                N/A     9/13   5/320
HILO             1400      77                N/A     8/13
KANEOHE BAY BUOY 1400      76                N/A     7/ 9   3/360
HANALEI KAUAI    NOT AVBL
KAHULUI HARBOR   1400   72 76  340/  8/ 11 1012.4R
HONOLULU HARBOR  1400   68     310/  1/  3 1012.9R
KILO NALU        NOT AVBL
HILO HARBOR      1400   71     340/ 13/ 16 1011.5R
MOKUOLOE         1400   72 74  360/ 12/ 15 1013.2R
NAWILIWILI       1400      77                N/A
WHOTS BUOY       NOT AVBL
BUOY 51028       NOT AVBL
$$

......................KEY........................................
  SKY/WX - SKY CONDITIONS/PRESENT WEATHER
  TMP    - TEMPERATURE IN FAHRENHEIT
  DWPT   - DEWPOINT IN FAHRENHEIT
  RH     - RELATIVE HUMIDITY IN PERCENT
  WIND   - DIRECTION AND SPEED /MPH FOR ISLANDS...KTS FOR BUOYS/
  PRES   - MEAN SEA LEVEL PRESSURE IN INCHES OF HG
  VSB    - VISIBILITY IN MILES
  HX     - HEAT INDEX
  WCI    - WIND CHILL INDEX
  VRB    - VARIABLE WIND DIRECTION
  N/A    - NOT AVAILABLE



USA.gov is the U.S. government's official web portal to all federal, state and local government web resources and services.